CNK802 CYVR-CYCD

Flight info

Callsign CNK802
Flight time 0h 17m
Altitude 7000
Route YVR/N0269F060 DCT YVR
Aircraft B350/L-SBGRW/S

Departure

Time 2026-04-18 03:13
Airport Vancouver International Airport (CYVR)

Arrival

Time 2026-04-18 03:31
Airport Nanaimo Airport (CYCD)
Time Latitude Longitude Altitude Speed Heading
2026-04-18 03:04 49.18137 -123.16107 12 ft 0 kts 36°
2026-04-18 03:08 49.18140 -123.16103 12 ft 6 kts 49°
2026-04-18 03:09 49.18151 -123.15900 12 ft 21 kts 41°
2026-04-18 03:09 49.18160 -123.15886 12 ft 0 kts 60°
2026-04-18 03:09 49.18168 -123.15830 12 ft 20 kts 92°
2026-04-18 03:09 49.18167 -123.15819 12 ft 19 kts 279°
2026-04-18 03:10 49.18200 -123.16069 2 ft 25 kts 279°
2026-04-18 03:10 49.18215 -123.16231 12 ft 12 kts 284°
2026-04-18 03:10 49.18223 -123.16271 12 ft 4 kts 323°
2026-04-18 03:10 49.18310 -123.16261 12 ft 0 kts
2026-04-18 03:11 49.18457 -123.16244 12 ft 19 kts 353°
2026-04-18 03:11 49.18504 -123.16349 13 ft 0 kts 279°
2026-04-18 03:13 49.18521 -123.16494 12 ft 56 kts 279°
2026-04-18 03:13 49.18644 -123.17531 68 ft 128 kts 281°
2026-04-18 03:13 49.18813 -123.18978 621 ft 144 kts 282°
2026-04-18 03:14 49.18961 -123.20547 1365 ft 156 kts 268°
2026-04-18 03:14 49.18630 -123.22189 1934 ft 170 kts 239°
2026-04-18 03:14 49.17969 -123.23743 2582 ft 177 kts 236°
2026-04-18 03:14 49.17282 -123.25344 3215 ft 184 kts 236°
2026-04-18 03:15 49.16575 -123.27030 3813 ft 188 kts 230°
2026-04-18 03:15 49.15595 -123.28328 4397 ft 190 kts 210°
2026-04-18 03:15 49.14455 -123.29347 5118 ft 187 kts 207°
2026-04-18 03:15 49.13311 -123.30389 5592 ft 199 kts 210°
2026-04-18 03:16 49.12101 -123.31598 5815 ft 217 kts 212°
2026-04-18 03:16 49.10802 -123.32936 5906 ft 232 kts 212°
2026-04-18 03:16 49.09454 -123.34343 5959 ft 242 kts 213°
2026-04-18 03:16 49.08047 -123.35818 5984 ft 248 kts 213°
2026-04-18 03:17 49.06603 -123.37332 5993 ft 252 kts 213°
2026-04-18 03:17 49.05145 -123.38859 6000 ft 255 kts 213°
2026-04-18 03:17 49.03788 -123.40539 6004 ft 257 kts 231°
2026-04-18 03:17 49.03205 -123.43094 6007 ft 262 kts 269°
2026-04-18 03:18 49.03483 -123.45831 6009 ft 260 kts 282°
2026-04-18 03:18 49.03933 -123.48503 6010 ft 260 kts 285°
2026-04-18 03:18 49.04427 -123.51157 6008 ft 259 kts 285°
2026-04-18 03:18 49.04900 -123.53801 6006 ft 259 kts 284°
2026-04-18 03:19 49.05170 -123.56471 6004 ft 258 kts 274°
2026-04-18 03:19 49.05267 -123.59201 6000 ft 257 kts 272°
2026-04-18 03:19 49.05331 -123.61929 6001 ft 257 kts 271°
2026-04-18 03:19 49.05380 -123.64671 6001 ft 258 kts 271°
2026-04-18 03:20 49.05423 -123.67408 5996 ft 258 kts 271°
2026-04-18 03:20 49.05463 -123.70115 5281 ft 254 kts 271°
2026-04-18 03:20 49.05549 -123.72836 4262 ft 257 kts 280°
2026-04-18 03:20 49.06345 -123.75144 3173 ft 249 kts 315°
2026-04-18 03:21 49.07673 -123.76631 2522 ft 225 kts 335°
2026-04-18 03:21 49.08946 -123.77732 2235 ft 197 kts 326°
2026-04-18 03:21 49.09985 -123.78866 2103 ft 170 kts 323°
2026-04-18 03:21 49.10899 -123.79910 2052 ft 170 kts 323°
2026-04-18 03:22 49.11902 -123.81063 2022 ft 188 kts 323°
2026-04-18 03:22 49.12979 -123.82307 2010 ft 198 kts 323°
2026-04-18 03:22 49.14122 -123.83491 2000 ft 205 kts 331°
2026-04-18 03:22 49.15507 -123.84129 2001 ft 213 kts 353°
2026-04-18 03:23 49.17000 -123.84292 2001 ft 217 kts 358°
2026-04-18 03:23 49.18522 -123.84312 1999 ft 220 kts
2026-04-18 03:23 49.20062 -123.84285 2003 ft 221 kts
2026-04-18 03:23 49.21584 -123.84239 2001 ft 222 kts
2026-04-18 03:24 49.23132 -123.84183 2006 ft 222 kts
2026-04-18 03:24 49.24652 -123.84446 2001 ft 222 kts 335°
2026-04-18 03:24 49.25754 -123.86048 2004 ft 221 kts 305°
2026-04-18 03:24 49.26934 -123.87493 2005 ft 221 kts 343°
2026-04-18 03:25 49.28435 -123.87310 2008 ft 222 kts 26°
2026-04-18 03:25 49.29451 -123.85599 2006 ft 222 kts 69°
2026-04-18 03:25 49.29446 -123.83284 2007 ft 222 kts 109°
2026-04-18 03:25 49.28799 -123.81136 2012 ft 222 kts 117°
2026-04-18 03:26 49.28086 -123.79058 2009 ft 222 kts 118°
2026-04-18 03:26 49.27300 -123.77023 2007 ft 222 kts 131°
2026-04-18 03:26 49.25955 -123.75966 2006 ft 222 kts 175°
2026-04-18 03:26 49.24501 -123.76612 2006 ft 222 kts 217°
2026-04-18 03:27 49.23375 -123.78200 2004 ft 222 kts 224°
2026-04-18 03:27 49.22269 -123.79849 1994 ft 222 kts 224°
2026-04-18 03:27 49.21060 -123.81317 2000 ft 222 kts 213°
2026-04-18 03:27 49.19719 -123.82511 2000 ft 222 kts 207°
2026-04-18 03:28 49.18319 -123.83533 1997 ft 223 kts 203°
2026-04-18 03:28 49.16876 -123.84402 1991 ft 223 kts 199°
2026-04-18 03:28 49.15415 -123.85121 1995 ft 223 kts 196°
2026-04-18 03:28 49.13912 -123.85714 1993 ft 223 kts 193°
2026-04-18 03:29 49.12469 -123.86247 1857 ft 201 kts 194°
2026-04-18 03:29 49.11182 -123.86698 1574 ft 164 kts 191°
2026-04-18 03:29 49.10187 -123.86907 1248 ft 136 kts 184°
2026-04-18 03:29 49.09307 -123.86922 870 ft 121 kts 179°
2026-04-18 03:30 49.08480 -123.86929 708 ft 118 kts 182°
2026-04-18 03:30 49.07649 -123.86957 483 ft 115 kts 180°
2026-04-18 03:30 49.06902 -123.86971 246 ft 102 kts 180°
2026-04-18 03:30 49.06178 -123.86987 99 ft 100 kts 182°
2026-04-18 03:31 49.05625 -123.87008 87 ft 38 kts 185°
2026-04-18 03:31 49.05472 -123.87076 91 ft 14 kts 231°
2026-04-18 03:31 49.05398 -123.87196 91 ft 17 kts 232°
2026-04-18 03:31 49.05350 -123.87340 91 ft 12 kts 272°
2026-04-18 03:32 49.05350 -123.87345 91 ft 0 kts 272°